FLYING LAPTOP

Last updated on July 6, 2021, 3:43 p.m. UTC

1 42831U 17042G   21186.81215519  .00000453  00000-0  50626-4 0  9997
2 42831  97.4696  55.6007 0015743  86.6622 273.6382 14.91315322216421
UTC
Height (km)
Latitude
Longitude
Inclination
Orbital Period
UTC large
Height (km)
Speed (km/s)
/
Latitude / Longitude
Inclination (degrees)
Orbital Period (minutes)
Azimuth
Elevation
Range (km)
Doppler Factor
iOS Compass Heading
iOS Angle